Location: Eferding
(48.3167°N, 14.0167°E)
Time: 01:55:31
(UTC+00:00)

Meteor 2-3 Rocket - Pass Details

Date: 12 November 2019
Orbit: 843 x 884 km, 81.2° (Epoch: 08 December)

Event Time Altitude Azimuth Distance (km) Brightness Sun altitude
Rises 16:19:40 0° 349° (NNW) 3,501 6.9 -8.6°
Reaches altitude 10° 16:22:08 10° 351° (N) 2,556 6.1 -9.0°
Maximum altitude 16:27:58 77° 77° (ENE) 908 3.7 -9.9°
Drops below altitude 10° 16:33:44 10° 164° (SSE) 2,524 6.2 -10.8°
Sets 16:36:09 0° 166° (SSE) 3,453 6.9 -11.2°
